Temperature
19 19 19 19 19 19 19 19 19 19 19 19 19 19 19 19 19 19 19 19 19 19 19 19 19 18 18 18 18 18 18 18 17 17 17 17 17 17 17 17 17 17 17
19 19 19 19 19 19 19 19 19 19 19 19 19 19 19 19 19 19 19 19 19 19 19 19 18 18 18 18 18 18 18 18 18 17 17 17 17 17 17 17 17 17 17
19 19 19 19 19 19 19 19 19 19 19 19 19 19 19 19 19 19 19 19 19 19 19 19 18 18 18 18 18 18 18 18 18 18 17 17 17 17 17 17 17 17 17
19 19 19 19 19 19 19 19 19 19 19 19 19 19 19 19 19 19 19 19 19 19 19 19 18 18 18 18 18 18 18 18 18 18 18 17 17 17 17 17 17 17 17
19 19 19 19 19 19 19 19 19 19 19 19 19 19 19 19 19 19 19 19 19 19 19 19 18 18 18 18 18 18 18 18 18 18 18 18 18 17 17 17 17 17 17
19 19 19 19 19 19 19 19 19 19 19 19 19 19 19 19 19 19 19 19 19 19 19 19 18 18 18 18 18 18 18 18 18 18 18 18 18 17 17 17 17 17 17
19 19 19 19 19 19 19 19 18 18 18 19 19 19 19 19 19 19 19 19 19 19 19 19 18 18 18 18 18 18 18 18 18 18 18 18 17 17 17 17 17 17 17
19 19 19 19 19 19 19 19 19 18 18 18 19 18 19 19 19 19 19 19 19 19 18 18 18 18 18 18 18 18 18 18 18 18 18 17 17 17 17 17 17 17 17
19 19 19 19 19 19 19 19 19 18 18 18 19 18 18 18 18 19 19 19 19 19 19 18 18 18 18 18 18 18 17 18 17 17 17 17 17 17 17 17 17 17 17
19 19 19 19 19 19 18 18 18 18 18 18 18 18 18 18 18 18 19 19 19 19 18 18 18 18 18 18 17 17 17 17 17 17 17 17 17 17 17 17 17 17 17
19 19 19 19 19 19 18 18 18 18 18 18 18 18 18 18 18 18 18 18 18 18 18 18 18 18 18 17 17 17 17 17 17 17 17 17 17 17 17 17 17 17 17
19 19 19 19 19 19 18 18 18 18 18 18 18 18 18 18 18 18 18 18 18 18 18 18 18 18 18 17 17 17 17 17 17 17 17 17 17 17 17 17 17 16 16
19 19 19 19 19 18 18 18 18 18 18 18 18 18 18 18 18 18 18 18 18 18 18 18 18 18 17 17 17 17 17 17 17 17 17 17 16 16 16 16 16 16 16
19 18 18 18 18 18 18 18 18 17 17 17 17 17 17 17 17 18 17 17 17 17 18 18 17 17 17 17 17 17 17 17 17 16 16 16 16 16 16 16 16 16 16
18 18 18 18 18 18 18 17 17 17 17 17 17 17 17 17 17 17 17 17 17 17 17 17 17 17 17 17 16 17 16 16 16 16 16 16 16 16 16 16 16 16 16
18 18 18 18 18 18 18 17 17 17 17 17 17 17 17 17 17 17 17 17 17 17 16 17 17 17 17 16 16 16 16 16 16 16 16 16 16 16 16 16 16 16 16
18 18 17 17 17 17 17 17 17 17 16 16 16 16 16 16 16 16 16 16 16 16 16 16 16 16 16 16 16 16 16 16 16 16 16 16 16 16 16 16 15 15 15
17 17 17 17 17 17 17 17 17 16 16 16 16 16 16 16 16 16 16 16 16 16 16 16 16 16 16 16 16 16 16 15 15 16 16 15 15 15 15 15 15 15 15
17 17 17 17 16 16 16 16 16 16 16 16 16 16 16 16 16 15 15 15 15 15 15 15 15 15 15 15 15 15 15 15 15 15 15 15 15 15 15 15 15 15 15
17 17 16 16 16 16 16 16 16 16 16 16 16 15 15 15 15 15 15 15 15 15 15 15 15 15 15 15 15 15 15 15 15 15 15 15 15 15 15 15 15 15 15
17 17 16 16 16 16 16 16 16 16 16 15 15 15 15 15 15 15 15 15 15 15 15 14 14 14 14 14 15 14 14 14 15 15 15 15 15 15 15 15 15 15 15
16 16 16 16 16 16 16 16 15 15 15 15 15 15 15 15 15 15 15 14 14 14 14 14 14 14 14 14 14 14 14 14 14 14 14 14 14 14 14 14 14 14 14
16 16 16 16 15 15 15 15 15 15 15 15 14 14 14 14 14 14 14 14 14 14 14 14 14 14 13 13 13 13 13 13 13 14 14 14 14 14 14 14 14 14 14
16 15 15 15 15 15 15 15 15 15 15 14 14 14 14 14 14 14 14 14 14 14 14 13 13 13 13 13 13 13 13 13 13 13 14 13 14 14 14 14 14 14 14
15 15 15 15 15 15 15 15 15 15 14 14 14 14 14 14 14 14 14 13 13 13 13 13 13 13 13 13 13 13 13 12 13 13 13 13 13 13 14 14 14 14 14
15 15 15 15 15 15 15 15 15 14 14 14 14 14 14 14 14 13 13 13 13 13 13 13 13 13 13 13 13 13 13 12 12 12 13 13 13 13 13 13 13 13 13
Wind_Speed
1 1 1 0 1 1 2 2 2 3 3 3 4 4 3 2 4 5 6 12 13 13 12 12 11 11 11 10 10 10 10 10 9 9 9 9 9 9 9 9 9 10 10
2 1 1 1 1 1 0 1 2 2 2 2 2 2 2 2 2 5 6 10 12 13 12 11 11 11 11 11 11 11 10 10 9 9 9 9 9 9 10 10 10 10 11
2 1 0 0 1 1 1 1 2 1 2 2 2 2 2 2 2 3 6 7 9 11 12 12 11 11 11 11 11 11 10 10 10 9 9 9 10 10 10 10 10 10 11
1 0 0 0 1 1 1 0 0 1 2 1 1 2 2 1 2 3 4 6 7 8 10 13 12 11 12 11 11 11 11 10 10 10 10 10 10 10 11 11 10 11 11
1 1 1 0 1 0 1 1 2 1 2 2 2 2 2 1 1 3 2 4 5 7 8 11 12 12 11 10 10 11 11 10 10 11 11 10 10 10 11 11 11 11 11
1 1 1 1 0 1 1 1 1 2 2 2 3 2 1 2 2 2 2 3 4 6 7 7 9 10 12 11 10 10 10 9 9 10 11 11 11 11 10 11 11 12 12
1 0 2 1 0 1 0 1 1 2 2 1 1 2 1 3 2 2 2 1 2 3 6 7 7 6 7 11 10 9 8 8 8 8 8 9 10 11 11 12 12 12 13
0 0 1 1 1 0 0 1 1 2 2 0 0 1 1 1 2 2 3 3 3 2 3 5 6 6 5 6 8 10 9 8 8 8 8 8 8 9 9 10 11 12 13
1 0 1 0 2 1 1 1 1 2 2 2 0 0 0 1 1 1 2 2 1 2 3 3 5 6 6 5 6 8 9 8 7 7 6 6 7 8 9 10 10 11 12
1 1 1 0 1 1 1 2 1 2 2 2 2 1 1 1 1 1 1 1 2 3 2 3 3 4 5 5 6 7 8 7 7 7 7 6 6 6 7 8 9 10 11
2 1 1 1 1 1 1 2 2 2 1 2 2 1 2 1 2 2 2 2 2 2 2 3 2 3 5 6 6 7 7 7 7 6 6 6 7 7 7 8 8 9 10
2 1 1 1 1 1 2 2 3 2 2 2 3 2 2 2 2 2 3 3 2 2 2 3 3 3 4 4 6 8 9 9 9 8 7 7 7 8 8 8 8 9 9
1 0 1 1 2 2 3 3 2 3 3 3 3 3 3 3 2 2 2 3 3 2 2 2 2 2 3 4 6 8 9 9 10 10 9 8 8 8 8 8 8 8 9
0 0 1 1 1 2 3 2 3 3 2 4 5 3 3 3 3 2 2 2 3 3 2 2 1 2 1 2 5 7 7 9 11 11 10 10 9 9 9 9 8 8 8
1 1 0 0 1 2 2 2 2 2 2 3 4 3 3 3 3 2 2 2 2 3 4 2 1 1 2 3 5 5 4 8 11 12 12 12 11 10 10 10 9 8 8
1 1 1 1 2 2 2 3 3 2 2 3 3 3 3 3 3 3 3 2 2 3 3 2 2 1 1 2 5 5 4 7 11 12 13 13 12 11 10 10 9 9 8
1 1 2 2 2 2 2 3 3 3 3 4 3 3 3 3 3 4 3 3 3 3 3 3 2 1 2 3 3 3 6 6 7 12 13 13 13 12 11 11 11 10 9
2 2 2 3 4 3 2 3 4 4 4 3 3 3 3 3 3 3 4 4 3 3 3 4 3 3 4 4 4 4 5 6 5 9 12 12 13 13 13 12 11 10 10
3 3 3 3 4 3 3 4 4 4 4 3 3 3 4 3 4 4 4 4 3 3 3 4 4 3 3 3 2 3 4 4 6 6 8 11 12 13 13 12 11 11 10
3 3 3 4 4 3 3 3 4 5 4 4 3 3 4 3 4 5 4 3 3 3 3 4 4 3 3 2 2 3 3 2 4 5 4 6 9 11 12 12 11 11 11
3 2 3 4 4 4 3 2 3 5 4 4 4 4 4 3 3 3 4 3 3 3 3 4 4 3 2 2 3 3 3 3 3 3 3 3 4 5 7 9 11 12 11
3 2 3 3 4 4 3 2 3 4 3 3 4 4 4 3 3 3 3 4 4 4 4 4 4 3 3 3 3 4 3 4 4 3 3 5 3 4 5 5 9 12 12
2 3 3 3 3 2 2 2 3 3 3 3 3 4 5 4 2 2 4 5 5 6 6 5 5 5 4 4 4 4 4 5 6 5 4 5 3 3 3 5 9 12 12
3 3 3 3 3 3 2 2 4 4 3 3 3 3 3 3 4 3 4 4 4 4 6 5 5 6 6 4 5 6 6 6 6 5 4 4 4 4 4 3 8 11 13
3 4 3 3 2 2 1 1 3 2 2 3 3 3 3 3 3 4 3 4 4 4 5 6 7 7 8 8 7 5 5 5 6 5 3 3 3 3 3 3 6 10 11
4 4 4 3 3 2 3 2 2 3 3 3 2 2 2 2 3 3 3 4 5 5 5 5 6 7 7 8 8 6 5 5 5 4 3 3 3 2 2 2 2 4 6
Wind_Direction
88 72 26 10 277 215 199 214 224 234 233 230 232 226 226 203 182 159 170 182 182 184 189 192 194 196 198 198 201 206 208 212 213 215 218 218 221 221 219 219 221 223 223
87 60 341 334 318 340 267 253 251 243 249 255 256 248 227 192 182 165 175 187 190 190 191 193 196 200 202 204 207 209 212 214 216 219 222 222 221 220 220 221 223 224 226
91 66 256 281 18 321 258 228 271 266 251 263 264 257 244 191 162 172 185 183 186 194 196 195 196 202 206 209 210 212 215 218 221 224 224 225 223 222 223 224 226 228 229
101 255 354 33 302 252 210 227 270 330 310 291 257 267 259 198 202 188 190 182 181 189 196 199 200 205 209 212 215 218 220 222 224 228 228 226 226 227 225 225 227 229 232
124 278 81 323 274 325 22 1 55 325 296 309 270 227 227 205 218 218 202 183 176 179 181 190 198 205 207 212 217 219 221 224 226 229 231 229 229 229 229 228 227 228 229
117 321 206 204 324 51 22 29 339 289 280 267 286 288 252 220 209 202 216 186 174 180 175 179 188 203 208 212 216 217 220 224 227 230 231 230 229 228 226 228 227 227 227
162 255 324 333 344 102 75 327 340 305 275 246 293 298 258 229 209 189 204 203 181 179 175 175 185 188 198 210 212 214 217 221 227 230 231 230 229 227 227 227 226 225 226
64 323 15 349 326 224 210 296 306 299 304 275 251 293 315 285 263 215 189 210 196 179 196 187 179 181 189 184 194 205 214 219 228 231 233 232 228 226 227 228 229 228 226
149 59 109 102 285 272 272 249 274 307 301 297 249 119 248 253 298 259 227 215 178 202 214 196 195 186 192 185 180 197 206 212 224 229 235 238 235 232 231 235 233 231 229
207 200 146 215 283 279 300 280 11 301 299 300 298 265 203 181 241 279 279 228 222 222 228 219 203 185 189 184 175 179 193 206 220 228 235 240 242 241 238 239 237 234 231
225 199 153 261 276 263 290 301 306 299 293 287 297 294 286 259 242 234 260 262 248 220 212 223 205 191 196 185 179 181 188 199 209 222 234 238 242 244 246 243 240 238 236
222 251 159 290 286 287 291 269 272 274 270 282 287 278 270 271 266 257 264 264 258 246 225 220 210 203 196 182 186 184 190 198 205 214 225 232 241 245 247 247 244 243 239
181 23 350 299 291 293 276 268 269 279 270 273 269 272 272 271 279 277 276 282 282 263 243 222 204 211 213 171 177 188 199 201 207 214 222 230 238 245 248 249 249 246 242
41 108 23 337 302 310 308 316 289 273 287 292 282 283 285 278 276 265 266 279 288 276 255 252 216 192 178 182 182 194 204 207 209 213 219 227 236 242 243 246 248 247 246
257 82 16 331 310 311 302 294 280 290 305 293 286 277 279 280 282 277 268 255 259 273 271 266 262 207 184 194 188 206 214 213 214 216 221 226 230 236 239 240 241 241 243
324 346 307 284 273 265 271 282 278 267 261 257 258 273 287 287 289 286 277 264 245 252 271 275 267 269 265 256 205 218 236 234 225 221 224 227 228 230 234 235 235 236 238
285 306 290 287 274 262 260 266 279 272 265 272 277 272 275 287 293 294 296 284 268 259 268 285 289 282 256 261 233 228 247 235 231 229 224 225 225 225 227 230 233 234 234
266 263 272 279 273 271 277 278 279 283 275 273 278 281 276 278 274 281 286 282 277 276 270 280 272 262 258 243 234 240 257 259 242 235 221 222 223 223 224 226 229 230 230
250 261 263 274 275 277 279 277 279 282 285 287 286 282 279 282 275 275 269 270 272 274 254 261 268 262 267 266 251 257 267 271 270 249 219 219 225 222 222 222 224 226 224
232 253 269 277 277 272 275 287 298 292 287 286 288 282 270 264 264 273 268 267 277 283 280 272 272 272 268 271 263 259 268 268 276 275 245 221 223 219 219 217 219 218 217
248 252 273 282 285 278 289 317 297 288 295 298 299 288 274 262 264 271 273 276 276 272 276 273 270 277 281 303 299 285 284 274 267 267 271 253 220 212 211 219 219 220 218
276 268 269 277 288 295 323 330 306 299 293 287 291 293 276 263 264 260 275 276 273 270 280 284 282 283 283 289 293 289 290 292 281 263 262 266 240 221 212 205 210 214 216
278 275 273 276 271 290 311 296 304 289 282 279 282 284 292 294 278 251 258 259 256 256 254 263 274 281 283 288 288 286 285 280 274 276 275 273 265 253 237 221 210 206 210
262 261 262 266 272 283 298 294 302 277 280 279 279 282 287 285 293 287 270 264 255 260 258 253 253 263 271 278 272 272 272 273 269 265 252 257 259 257 259 216 208 199 203
262 264 258 253 258 275 265 278 302 290 283 288 290 291 284 272 284 292 285 280 272 267 270 268 256 251 252 256 257 267 270 270 275 269 260 257 265 266 258 243 212 203 203
263 265 266 258 247 241 221 230 262 288 286 288 277 267 270 271 286 294 275 278 277 280 284 278 267 259 251 250 246 238 251 265 276 276 267 263 272 285 282 260 234 192 200
Height
1531 1531 1532 1532 1532 1533 1533 1533 1533 1533 1534 1534 1534 1535 1535 1536 1537 1537 1537 1538 1539 1540 1540 1541 1542 1543 1544 1544 1545 1546 1547 1547 1548 1549 1550 1550 1551 1552 1552 1553 1554 1556 1557
1530 1531 1532 1532 1532 1532 1532 1532 1533 1533 1533 1533 1533 1534 1534 1534 1535 1536 1536 1536 1538 1538 1539 1540 1541 1541 1542 1543 1544 1544 1545 1546 1547 1547 1548 1548 1549 1550 1550 1551 1552 1553 1554
1530 1531 1531 1531 1531 1531 1531 1532 1532 1532 1532 1532 1532 1532 1533 1533 1534 1534 1534 1535 1536 1537 1538 1538 1539 1540 1541 1541 1542 1543 1543 1544 1545 1545 1546 1546 1547 1548 1548 1549 1550 1551 1552
1531 1531 1531 1531 1531 1531 1531 1531 1531 1531 1531 1531 1531 1531 1531 1532 1532 1533 1533 1534 1535 1535 1536 1537 1537 1538 1539 1540 1541 1541 1542 1542 1543 1543 1544 1544 1545 1545 1546 1547 1547 1548 1550
1531 1531 1531 1531 1531 1530 1530 1530 1530 1530 1529 1529 1529 1530 1530 1530 1531 1532 1533 1533 1534 1534 1534 1535 1536 1537 1537 1538 1538 1539 1540 1540 1541 1541 1541 1542 1542 1543 1543 1544 1545 1546 1547
1531 1531 1531 1531 1531 1530 1529 1529 1529 1529 1528 1528 1528 1529 1529 1529 1530 1530 1531 1532 1532 1532 1533 1533 1534 1534 1535 1535 1536 1537 1537 1537 1538 1538 1539 1539 1540 1540 1540 1541 1542 1543 1544
1530 1530 1531 1530 1530 1529 1529 1528 1528 1527 1527 1527 1527 1527 1528 1528 1528 1529 1529 1530 1530 1531 1531 1531 1532 1532 1533 1533 1533 1534 1535 1535 1535 1536 1536 1536 1537 1537 1537 1538 1538 1539 1540
1530 1530 1530 1529 1529 1529 1528 1528 1527 1526 1526 1526 1526 1526 1527 1528 1527 1527 1528 1528 1529 1529 1530 1530 1530 1530 1530 1530 1530 1531 1532 1532 1532 1533 1533 1533 1534 1534 1534 1535 1535 1536 1537
1529 1529 1529 1528 1528 1528 1527 1527 1527 1526 1525 1526 1526 1526 1525 1526 1526 1526 1526 1526 1527 1527 1528 1528 1528 1528 1528 1528 1528 1528 1529 1529 1529 1530 1530 1530 1531 1531 1531 1531 1532 1533 1533
1528 1527 1527 1527 1527 1526 1526 1526 1526 1525 1525 1525 1525 1524 1525 1524 1525 1525 1525 1525 1525 1525 1526 1526 1526 1526 1526 1525 1525 1525 1526 1526 1526 1527 1527 1527 1527 1527 1528 1528 1528 1529 1530
1527 1526 1526 1526 1525 1525 1525 1525 1524 1524 1524 1524 1523 1523 1523 1523 1523 1523 1523 1523 1523 1523 1523 1523 1524 1524 1524 1523 1523 1523 1523 1523 1523 1523 1523 1524 1524 1524 1524 1524 1525 1525 1526
1525 1525 1525 1525 1524 1524 1523 1523 1523 1523 1522 1522 1522 1522 1522 1522 1521 1521 1521 1520 1520 1520 1521 1520 1521 1521 1521 1521 1521 1520 1520 1520 1520 1520 1520 1520 1520 1520 1521 1521 1521 1522 1522
1524 1523 1523 1523 1522 1522 1521 1521 1521 1520 1520 1521 1520 1520 1520 1520 1519 1519 1519 1518 1518 1518 1518 1518 1518 1519 1519 1518 1518 1518 1517 1517 1517 1517 1517 1517 1516 1517 1517 1517 1517 1518 1518
1522 1521 1521 1521 1520 1519 1519 1518 1518 1518 1517 1518 1518 1517 1517 1517 1517 1517 1517 1517 1516 1516 1516 1516 1516 1516 1516 1516 1515 1515 1515 1514 1514 1514 1513 1513 1513 1513 1513 1513 1514 1514 1514
1520 1519 1519 1518 1518 1517 1517 1517 1516 1515 1515 1515 1514 1514 1514 1514 1514 1514 1514 1514 1515 1513 1513 1513 1514 1513 1513 1513 1512 1512 1511 1511 1510 1510 1510 1509 1509 1509 1509 1509 1510 1510 1510
1517 1517 1517 1516 1516 1515 1515 1515 1514 1513 1513 1512 1511 1512 1511 1511 1511 1511 1511 1511 1511 1512 1511 1510 1511 1511 1511 1510 1510 1509 1508 1508 1507 1507 1506 1506 1505 1505 1505 1505 1505 1506 1506
1515 1515 1514 1514 1513 1513 1512 1512 1511 1511 1510 1510 1510 1509 1509 1508 1508 1508 1508 1508 1508 1508 1508 1507 1508 1508 1508 1507 1506 1506 1505 1505 1504 1503 1502 1502 1502 1501 1501 1501 1502 1502 1502
1512 1512 1512 1511 1511 1510 1510 1509 1509 1508 1508 1508 1508 1507 1506 1506 1505 1504 1505 1505 1505 1505 1505 1504 1504 1504 1504 1503 1503 1502 1502 1501 1500 1500 1499 1498 1498 1498 1497 1497 1498 1498 1498
1509 1509 1509 1509 1508 1508 1507 1507 1506 1506 1506 1505 1505 1504 1503 1503 1502 1501 1501 1501 1501 1501 1501 1501 1500 1500 1500 1500 1499 1499 1498 1498 1497 1496 1496 1495 1494 1494 1494 1493 1494 1494 1494
1505 1505 1506 1506 1506 1505 1505 1504 1504 1503 1503 1502 1501 1500 1499 1499 1499 1498 1498 1498 1498 1497 1498 1497 1497 1497 1497 1496 1496 1495 1494 1494 1493 1493 1492 1491 1491 1490 1490 1489 1490 1490 1490
1502 1502 1503 1503 1503 1503 1502 1501 1500 1500 1499 1498 1498 1497 1496 1496 1495 1494 1494 1494 1494 1494 1494 1494 1493 1493 1493 1493 1492 1492 1491 1490 1489 1489 1488 1488 1487 1486 1486 1486 1486 1486 1486
1499 1499 1500 1499 1499 1500 1499 1498 1497 1497 1496 1495 1494 1493 1493 1493 1492 1491 1490 1490 1490 1490 1490 1490 1489 1489 1489 1489 1488 1488 1487 1486 1485 1486 1485 1484 1484 1482 1482 1482 1482 1482 1482
1496 1497 1497 1497 1496 1496 1495 1495 1494 1493 1492 1491 1490 1490 1490 1489 1488 1488 1487 1486 1487 1487 1487 1487 1486 1485 1485 1484 1484 1483 1483 1482 1481 1481 1481 1480 1480 1479 1479 1478 1478 1478 1478
1494 1494 1494 1493 1493 1492 1492 1492 1491 1490 1489 1488 1488 1488 1487 1486 1486 1485 1484 1483 1482 1482 1483 1482 1482 1481 1481 1480 1480 1480 1479 1478 1477 1477 1477 1476 1476 1476 1475 1475 1475 1475 1475
1491 1491 1491 1490 1489 1489 1488 1488 1488 1487 1486 1485 1485 1485 1484 1483 1483 1482 1481 1480 1479 1479 1478 1478 1478 1477 1476 1476 1476 1476 1475 1474 1473 1473 1473 1473 1472 1471 1471 1471 1472 1472 1472
1488 1488 1488 1487 1486 1485 1485 1485 1485 1484 1483 1482 1482 1482 1481 1480 1480 1479 1478 1477 1475 1475 1474 1474 1473 1472 1472 1471 1471 1471 1470 1470 1469 1469 1469 1469 1468 1468 1467 1467 1468 1468 1468